Location: Ajisawe
(8.4333°N, 4.3833°E)
Time: 15:49:06
(UTC+00:00)

Courier 1B - Visible Passes

Search period start: 11 April 2021 00:00
Search period end: 21 April 2021 00:00
Orbit: 963 x 1209 km, 28.3° (Epoch: 11 April)

Date Brightness Start Highest point End Pass type
(mag) Time Alt. Az. Time Alt. Az. Time Alt. Az.
11 Apr 9.2 19:47:47 10° NNW 19:53:11 22° NNE 19:53:47 22° NNE visible
12 Apr 9.5 18:54:21 10° NNW 18:58:58 18° NNE 19:03:20 11° NE visible
12 Apr 9.5 20:47:17 10° NW 20:50:13 24° NNW 20:50:13 24° NNW visible
13 Apr 8.7 19:53:47 10° NW 19:59:47 33° NNE 19:59:47 33° NNE visible
14 Apr 9.0 19:00:23 10° NW 19:05:58 25° NNE 19:09:23 18° ENE visible
14 Apr 9.4 20:53:28 10° NW 20:56:16 26° NW 20:56:16 26° NW visible
15 Apr 9.3 18:07:02 10° NNW 18:11:51 20° NNE 18:16:51 10° ENE visible
15 Apr 8.2 19:59:53 10° NW 20:05:54 50° N 20:05:54 50° N visible
16 Apr 8.4 19:06:24 10° NW 19:12:44 39° NNE 19:15:33 28° ENE visible
16 Apr 9.6 21:00:00 10° WNW 21:02:26 24° WNW 21:02:26 24° WNW visible
17 Apr 8.8 18:13:00 10° NW 18:18:45 30° NNE 18:24:48 10° E visible
17 Apr 7.9 20:06:13 10° WNW 20:12:08 68° NW 20:12:08 68° NW visible
18 Apr 7.7 19:12:34 10° NW 19:19:18 65° NNE 19:21:50 41° E visible
18 Apr 9.9 21:07:03 10° W 21:08:45 18° W 21:08:45 18° W visible
19 Apr 8.1 18:19:03 10° NW 18:25:26 48° NNE 18:31:36 13° E visible
19 Apr 8.3 20:12:58 10° WNW 20:18:30 48° WSW 20:18:30 48° WSW visible
20 Apr 7.7 19:19:04 10° WNW 19:25:47 73° SSW 19:28:16 43° SE visible
20 Apr 10.2 21:15:01 10° WSW 21:15:11 11° WSW 21:15:11 11° WSW visible
